| time (UTC) | temp F | wind direction | speed knots | gust knots | rain 1hr in | rain 24hr in | rain mn in | humidity % | barometer mb |
| 20260504192326 | 80 | 208 | 1.7 | 6.1 | 0.00 | 0.00 | 0.00 | 62 | 1013.6 |
| 20260504191334 | 79 | 179 | 2.6 | 6.1 | 0.00 | 0.00 | 0.00 | 61 | 1013.6 |
| 20260504190341 | 79 | 150 | 3.5 | 7.0 | 0.00 | 0.00 | 0.00 | 64 | 1013.7 |
| 20260504185328 | 79 | 192 | 2.6 | 7.0 | 0.00 | 0.00 | 0.00 | 63 | 1013.7 |
| 20260504184334 | 79 | 169 | 1.7 | 4.3 | 0.00 | 0.00 | 0.00 | 62 | 1013.7 |
| 20260504183340 | 79 | 134 | 3.5 | 7.8 | 0.00 | 0.00 | 0.00 | 64 | 1014.1 |
| 20260504182331 | 78 | 192 | 2.6 | 6.1 | 0.00 | 0.00 | 0.00 | 64 | 1014.2 |
| 20260504181337 | 79 | 148 | 2.6 | 7.0 | 0.00 | 0.00 | 0.00 | 64 | 1014.3 |
| 20260504180341 | 79 | 170 | 3.5 | 7.8 | 0.00 | 0.00 | 0.00 | 62 | 1014.5 |
| 20260504175327 | 78 | 137 | 1.7 | 6.1 | 0.00 | 0.00 | 0.00 | 64 | 1014.3 |
| 20260504174354 | 79 | 181 | 2.6 | 10.4 | 0.00 | 0.00 | 0.00 | 64 | 1014.6 |
| 20260504173338 | 78 | 162 | 2.6 | 5.2 | 0.00 | 0.00 | 0.00 | 65 | 1014.9 |
| 20260504172345 | 78 | 169 | 3.5 | 7.0 | 0.00 | 0.00 | 0.00 | 65 | 1015.0 |
| 20260504171337 | 77 | 167 | 3.5 | 9.6 | 0.00 | 0.00 | 0.00 | 64 | 1015.0 |
| 20260504170400 | 78 | 134 | 4.3 | 7.8 | 0.00 | 0.00 | 0.00 | 64 | 1015.2 |
| 20260504160333 | 76 | 149 | 4.3 | 8.7 | 0.00 | 0.00 | 0.00 | 67 | 1016.0 |
| 20260504150351 | 73 | 160 | 1.7 | 7.0 | 0.00 | 0.00 | 0.00 | 71 | 1016.0 |
| 20260504141335 | 70 | 141 | 1.7 | 6.1 | 0.00 | 0.00 | 0.00 | 75 | 1016.1 |
| 20260504140339 | 69 | 137 | 2.6 | 7.0 | 0.00 | 0.00 | 0.00 | 77 | 1016.4 |
| 20260504130334 | 64 | 131 | 1.7 | 4.3 | 0.00 | 0.00 | 0.00 | 80 | 1016.2 |
| 20260504110338 | 59 | 123 | 0.9 | 1.7 | 0.00 | 0.00 | 0.00 | 82 | 1016.0 |
| 20260504100325 | 60 | 152 | 0.9 | 2.6 | 0.00 | 0.00 | 0.00 | 80 | 1015.9 |
| 20260504081341 | 61 | 147 | 0.9 | 1.7 | 0.00 | 0.00 | 0.00 | 82 | 1016.6 |
| 20260504080327 | 61 | 131 | 0.9 | 1.7 | 0.00 | 0.00 | 0.00 | 82 | 1016.6 |
| 20260504070332 | 61 | 171 | 0.0 | 0.0 | 0.00 | 0.00 | 0.00 | 84 | 1017.7 |
| 20260504050342 | 63 | 187 | 0.0 | 1.7 | 0.00 | 0.00 | 0.00 | 77 | 1018.8 |
| 20260504045326 | 63 | 165 | 0.0 | 0.9 | 0.00 | 0.00 | 0.00 | 77 | 1018.9 |
| 20260504044356 | 63 | 161 | 0.0 | 0.9 | 0.00 | 0.00 | 0.00 | 76 | 1018.8 |
| 20260504043342 | 63 | 161 | 0.0 | 0.9 | 0.00 | 0.00 | 0.00 | 76 | 1018.9 |
| 20260504042331 | 64 | 161 | 0.0 | 0.9 | 0.00 | 0.00 | 0.00 | 75 | 1018.8 |
| 20260504041402 | 64 | 161 | 0.0 | 0.9 | 0.00 | 0.00 | 0.00 | 74 | 1018.9 |
| 20260504040326 | 64 | 150 | 0.0 | 1.7 | 0.00 | 0.00 | 0.00 | 73 | 1019.1 |
| 20260504035333 | 65 | 160 | 0.0 | 0.9 | 0.00 | 0.00 | 0.00 | 73 | 1018.9 |
| 20260504034340 | 65 | 183 | 0.0 | 0.9 | 0.00 | 0.00 | 0.00 | 73 | 1019.0 |
| 20260504033328 | 65 | 185 | 0.0 | 1.7 | 0.00 | 0.00 | 0.00 | 73 | 1018.8 |
| 20260504032336 | 66 | 185 | 0.0 | 0.9 | 0.00 | 0.00 | 0.00 | 71 | 1018.8 |
| 20260504031341 | 66 | 185 | 0.0 | 0.9 | 0.00 | 0.00 | 0.00 | 70 | 1018.9 |
| 20260504030342 | 66 | 168 | 0.9 | 1.7 | 0.00 | 0.00 | 0.00 | 70 | 1018.6 |
| 20260504025345 | 67 | 162 | 0.9 | 1.7 | 0.00 | 0.00 | 0.00 | 69 | 1018.5 |
| 20260504024331 | 67 | 137 | 1.7 | 4.3 | 0.00 | 0.00 | 0.00 | 69 | 1018.5 |
| 20260504023353 | 67 | 135 | 1.7 | 4.3 | 0.00 | 0.00 | 0.00 | 68 | 1018.4 |
| 20260504021329 | 68 | 135 | 1.7 | 4.3 | 0.00 | 0.00 | 0.00 | 66 | 1018.2 |
| 20260504020334 | 69 | 131 | 2.6 | 5.2 | 0.00 | 0.00 | 0.00 | 65 | 1018.1 |
| 20260504015339 | 69 | 131 | 2.6 | 5.2 | 0.00 | 0.00 | 0.00 | 65 | 1018.0 |
| 20260504014325 | 69 | 140 | 1.7 | 2.6 | 0.00 | 0.00 | 0.00 | 65 | 1017.9 |
| 20260504013333 | 70 | 140 | 1.7 | 2.6 | 0.00 | 0.00 | 0.00 | 63 | 1017.9 |
| 20260504012340 | 70 | 133 | 1.7 | 4.3 | 0.00 | 0.00 | 0.00 | 62 | 1017.9 |
| 20260504011327 | 71 | 129 | 1.7 | 3.5 | 0.00 | 0.00 | 0.00 | 61 | 1017.7 |
| 20260504010328 | 72 | 130 | 1.7 | 3.5 | 0.00 | 0.00 | 0.00 | 60 | 1017.8 |
| 20260504005337 | 73 | 135 | 2.6 | 4.3 | 0.00 | 0.00 | 0.00 | 57 | 1017.7 |
| 20260504004326 | 74 | 135 | 2.6 | 7.0 | 0.00 | 0.00 | 0.00 | 55 | 1017.7 |
| 20260504003332 | 75 | 146 | 1.7 | 1.7 | 0.00 | 0.00 | 0.00 | 54 | 1017.7 |
| 20260504002338 | 75 | 126 | 0.0 | 0.9 | 0.00 | 0.00 | 0.00 | 53 | 1017.9 |
| 20260504001344 | 76 | 126 | 0.9 | 1.7 | 0.00 | 0.00 | 0.00 | 50 | 1017.8 |
| 20260504000346 | 76 | 126 | 1.7 | 2.6 | 0.00 | 0.00 | 0.00 | 46 | 1017.9 |
| 20260503235331 | 76 | 128 | 1.7 | 4.3 | 0.00 | 0.00 | 0.00 | 44 | 1017.9 |
| 20260503234357 | 77 | 140 | 0.9 | 3.5 | 0.00 | 0.00 | 0.00 | 42 | 1017.9 |
| 20260503233327 | 78 | 150 | 0.9 | 2.6 | 0.00 | 0.00 | 0.00 | 40 | 1018.0 |
| 20260503232352 | 78 | 138 | 0.9 | 5.2 | 0.00 | 0.00 | 0.00 | 41 | 1018.0 |
| 20260503231336 | 78 | 113 | 2.6 | 7.0 | 0.00 | 0.00 | 0.00 | 40 | 1018.1 |
| 20260503230341 | 78 | 147 | 1.7 | 5.2 | 0.00 | 0.00 | 0.00 | 43 | 1018.3 |
| 20260503225328 | 78 | 146 | 1.7 | 4.3 | 0.00 | 0.00 | 0.00 | 45 | 1018.2 |
| 20260503224354 | 78 | 144 | 1.7 | 7.0 | 0.00 | 0.00 | 0.00 | 44 | 1018.4 |
| 20260503223336 | 78 | 135 | 3.5 | 7.0 | 0.00 | 0.00 | 0.00 | 43 | 1018.5 |
| 20260503222325 | 78 | 138 | 2.6 | 6.1 | 0.00 | 0.00 | 0.00 | 41 | 1018.7 |
| 20260503221333 | 78 | 123 | 1.7 | 3.5 | 0.00 | 0.00 | 0.00 | 43 | 1018.6 |
| 20260503220337 | 78 | 152 | 2.6 | 6.1 | 0.00 | 0.00 | 0.00 | 41 | 1019.0 |
| 20260503215325 | 79 | 154 | 1.7 | 4.3 | 0.00 | 0.00 | 0.00 | 45 | 1019.1 |
| 20260503214334 | 78 | 151 | 2.6 | 6.1 | 0.00 | 0.00 | 0.00 | 42 | 1019.0 |
| 20260503213336 | 78 | 142 | 1.7 | 4.3 | 0.00 | 0.00 | 0.00 | 44 | 1019.2 |
| 20260503212324 | 78 | 143 | 1.7 | 6.1 | 0.00 | 0.00 | 0.00 | 45 | 1019.3 |
| 20260503211355 | 78 | 140 | 0.9 | 8.7 | 0.00 | 0.00 | 0.00 | 42 | 1019.6 |
| 20260503210339 | 78 | 140 | 0.9 | 4.3 | 0.00 | 0.00 | 0.00 | 44 | 1019.6 |
| 20260503205326 | 78 | 223 | 1.7 | 10.4 | 0.00 | 0.00 | 0.00 | 41 | 1019.9 |
| 20260503204332 | 78 | 197 | 0.9 | 8.7 | 0.00 | 0.00 | 0.00 | 42 | 1020.1 |
| 20260503203336 | 78 | 82 | 2.6 | 7.0 | 0.00 | 0.00 | 0.00 | 47 | 1020.2 |
| 20260503202402 | 78 | 167 | 1.7 | 6.1 | 0.00 | 0.00 | 0.00 | 45 | 1020.4 |
| 20260503201327 | 78 | 133 | 2.6 | 7.0 | 0.00 | 0.00 | 0.00 | 43 | 1020.5 |
| 20260503200331 | 78 | 141 | 1.7 | 7.0 | 0.00 | 0.00 | 0.00 | 43 | 1020.7 |
| 20260503195403 | 78 | 140 | 2.6 | 7.0 | 0.00 | 0.00 | 0.00 | 46 | 1020.9 |
| 20260503194329 | 78 | 203 | 0.9 | 2.6 | 0.00 | 0.00 | 0.00 | 44 | 1021.0 |
| 20260503193351 | 77 | 119 | 0.9 | 3.5 | 0.00 | 0.00 | 0.00 | 43 | 1021.2 |